Location: Carnetin
(48.9010°N, 2.7059°E)
Time: 14:36:56
(UTC+00:00)

Cosmos 2344 - Visible Passes

Search period start: 26 May 2022 00:00
Search period end: 05 June 2022 00:00
Orbit: 1229 x 3014 km, 63.3° (Epoch: 25 May)

Date Brightness Start Highest point End Pass type
(mag) Time Alt. Az. Time Alt. Az. Time Alt. Az.
26 May 5.6 01:13:06 10° NW 01:19:56 31° N 01:28:16 10° ENE visible
26 May 3.5 20:30:24 10° SSW 20:37:47 63° ESE 20:45:20 10° NE visible
26 May 4.8 22:45:41 10° W 22:52:37 42° NNW 23:00:26 10° NE visible
27 May 5.6 01:02:50 10° NW 01:09:40 31° N 01:17:59 10° ENE visible
27 May 3.5 20:20:08 10° SSW 20:27:30 63° SE 20:35:04 10° NE visible
27 May 4.8 22:35:25 10° W 22:42:21 42° NNW 22:50:08 10° NE visible
28 May 5.6 00:52:34 10° NW 00:59:23 31° N 01:07:43 10° ENE visible
28 May 4.9 03:07:39 10° NW 03:16:00 59° NE 03:27:23 10° ESE visible
28 May 3.5 20:09:51 10° SSW 20:17:13 63° SE 20:24:47 10° NE visible
28 May 4.9 22:25:09 10° W 22:32:04 42° NNW 22:39:52 10° NE visible
29 May 5.6 00:42:17 10° NW 00:49:07 31° N 00:57:27 10° ENE visible
29 May 4.9 02:57:22 10° NW 03:05:43 59° NE 03:17:07 10° ESE visible
29 May 4.9 22:14:52 10° W 22:21:48 42° NNW 22:29:36 10° NE visible
30 May 5.6 00:32:01 10° NW 00:38:51 31° N 00:47:11 10° ENE visible
30 May 4.9 02:47:05 10° NW 02:55:27 59° NE 03:06:51 10° ESE visible
30 May 4.9 22:04:36 10° W 22:11:32 42° NNW 22:19:19 10° NE visible
31 May 5.6 00:21:45 10° NW 00:28:35 32° N 00:36:55 10° ENE visible
31 May 4.9 02:36:49 10° NW 02:45:10 59° NE 02:56:34 10° ESE visible
31 May 4.9 21:54:20 10° W 22:01:15 41° NNW 22:09:03 10° NE visible
01 Jun 5.6 00:11:28 10° NW 00:18:18 32° N 00:26:39 10° ENE visible
01 Jun 4.9 02:26:32 10° NW 02:34:54 59° NE 02:46:19 10° ESE visible
01 Jun 5.0 21:44:03 10° W 21:50:58 41° NNW 21:58:46 10° NE visible
02 Jun 5.6 00:01:12 10° NW 00:08:02 32° N 00:16:23 10° ENE visible
02 Jun 4.8 02:16:16 10° NW 02:24:37 59° NE 02:36:02 10° ESE visible
02 Jun 5.0 21:33:48 10° W 21:40:42 41° NNW 21:48:29 10° NE visible
02 Jun 5.6 23:50:56 10° NW 23:57:46 32° N 00:06:07 10° ENE visible
03 Jun 4.8 02:05:59 10° NW 02:14:21 59° NE 02:25:46 10° ESE visible
03 Jun 5.0 21:23:31 10° W 21:30:26 41° NNW 21:38:13 10° NE visible
03 Jun 5.6 23:40:39 10° NW 23:47:29 32° N 23:55:51 10° ENE visible
04 Jun 4.8 01:55:42 10° NW 02:04:04 60° NE 02:15:30 10° ESE visible
04 Jun 5.0 21:13:15 10° W 21:20:10 41° NNW 21:27:57 10° NE visible
04 Jun 5.6 23:30:23 10° NW 23:37:13 32° N 23:45:35 10° ENE visible
